{"data":{"norad_id":63375,"epoch":"2026-05-25T03:40:32.646432Z","epoch_age_seconds":61960,"freshness":"FRESH","line1":"1 63375U 25063N   26145.15315563  .00023614  00000+0  80646-3 0  9999","line2":"2 63375  53.1597  54.6462 0001186  85.1931 274.9205 15.30216484 66450","mean_motion":15.30216484,"eccentricity":0.0001186,"inclination_deg":53.1597,"raan_deg":54.6462,"arg_perigee_deg":85.1931,"mean_anomaly_deg":274.9205,"bstar":0.00080646,"rev_number":6645,"period_min":94.104331972417,"perigee_km":474.35304989021,"apogee_km":475.97865332662,"semimajor_km":6853.3028516084,"source":"CELESTRAK","updated_at":"2026-05-25T13:38:19.964140Z"}}